User: anonymous   Login
Location: NJAA Observatory
(40.6819°N, 74.8979°W)
Time: 19:53:55
(UTC-04:00)
Language:

Cosmos 220 Rocket - Orbit

View from above orbital plane
View from above orbital plane
View from above satellite
View from above satellite

Ground track
Ground track

The orbit data is extracted from the following two-line orbital elements,

1 03230U 68040B   15146.86364208  .00000903  00000-0  98870-4 0  9998
2 03230 074.0357 307.9565 0030136 100.4997 259.9581 14.89178577523482
Epoch (UTC): 26 May 2015 20:43:38
Eccentricity: 0.0030136
inclination: 74.0357°
perigee height: 579 km
apogee height: 621 km
right ascension of ascending node: 307.9565°
argument of perigee: 100.4997°
revolutions per day: 14.89178577
mean anomaly at epoch: 259.9581°
orbit number at epoch: 52348

The dashed part of the orbit path shows where the satellite is in the earth's shadow,  

DLR